This is the latest recevied weather packets stored in our database for station/object KMASWX. If no packets are shown the sender has not sent any weather packets the latest 10 day(s).
| Time | Temp. | Humidity | Pressure | Rain* | Wind** | Luminosity | Snow |
|---|---|---|---|---|---|---|---|
| 1777941494 | 27.22° C | 21% | - | 0 mm | - | - | - |
| 1777941191 | 26.67° C | 20% | - | 0 mm | - | - | - |
| 1777940888 | 27.22° C | 22% | - | 0 mm | - | - | - |
| 1777940584 | 26.67° C | 21% | - | 0 mm | - | - | - |
| 1777939669 | 26.67° C | 20% | - | 0 mm | - | - | - |
| 1777939363 | 26.67° C | 22% | - | 0 mm | - | - | - |
| 1777938751 | 26.67° C | 21% | - | 0 mm | - | - | - |
| 1777938447 | 26.67° C | 22% | - | 0 mm | - | - | - |
| 1777938143 | 26.67° C | 22% | - | 0 mm | - | - | - |
| 1777936926 | 27.78° C | 20% | - | 0 mm | - | - | - |
| 1777936619 | 27.78° C | 21% | - | 0 mm | - | - | - |
| 1777936315 | 27.22° C | 22% | - | 0 mm | - | - | - |
| 1777936012 | 27.22° C | 21% | - | 0 mm | - | - | - |
| 1777935401 | 27.22° C | 22% | - | 0 mm | - | - | - |
| 1777934486 | 26.67° C | 21% | - | 0 mm | - | - | - |
| 1777934181 | 27.22° C | 22% | - | 0 mm | - | - | - |
| 1777933878 | 26.67° C | 22% | - | 0 mm | - | - | - |
| 1777933574 | 27.22° C | 21% | - | 0 mm | - | - | - |
| 1777933270 | 27.78° C | 21% | - | 0 mm | - | - | - |
| 1777932662 | 27.78° C | 21% | - | 0 mm | - | - | - |
| 1777932359 | 27.78° C | 21% | - | 0 mm | - | - | - |
| 1777932052 | 27.78° C | 20% | - | 0 mm | - | - | - |
| 1777931749 | 27.22° C | 20% | - | 0 mm | - | - | - |
| 1777931142 | 26.67° C | 22% | - | 0 mm | - | - | - |
| 1777930532 | 27.22° C | 19% | - | 0 mm | - | - | - |
* Rain latest 24 hours (hover to see other rain measurements)
** Current wind speed in m/s (hover to see current wind gust speed)